Hourly Data Report for February 21, 2003

TORONTO CITY
ONTARIO

43°40'00.000" N
79°24'00.000" W
112.50 m
6158355
71508
XTO

Download Data

Hourly Data (February 2003)
Hourly Data Report for February 21, 2003
TIME
LST
Temp Definition
°C
Dew Point Definition
°C
Rel Hum Definition
%
Precip. Amount Definition
mm

Wind Dir Definition
10's deg

Wind Spd Definition
km/h
Visibility Definition
km
Stn Press Definition
kPa
Hmdx Definition


Wind Chill Definition


Weather Definition


00:00 3.3 -4.3 57     0 LegendMM 100.32     LegendNANA
01:00
02:00 3.6 -3.5 60     0 LegendMM 100.32     LegendNANA
03:00
04:00 3.4 -3.7 60     0 LegendMM 100.25     LegendNANA
05:00 2.4 -3.4 65     0 LegendMM 100.23     LegendNANA
06:00 1.4 -3.6 69     0 LegendMM 100.20     LegendNANA
07:00 1.1 -3.8 70     0 LegendMM 100.22     LegendNANA
08:00 0.8 -3.8 71     0 LegendMM 100.23     LegendNANA
09:00 2.0 -4.2 63     0 LegendMM 100.28     LegendNANA
10:00 4.8 -4.1 52     0 LegendMM 100.23     LegendNANA
11:00 3.8 -2.3 64     0 LegendMM 100.19     LegendNANA
12:00 5.4 -3.0 55     0 LegendMM 100.12     LegendNANA
13:00 4.8 -2.4 60     0 LegendMM 100.07     LegendNANA
14:00 4.8 -2.8 58     0 LegendMM 99.95     LegendNANA
15:00
16:00 4.3 -1.4 66   LegendMM LegendMM LegendMM 99.93     LegendNANA
17:00 4.4 -1.7 65   LegendMM LegendMM LegendMM 99.88     LegendNANA
18:00 3.7 -1.7 68   LegendMM LegendMM LegendMM 99.83     LegendNANA
19:00 3.3 -1.7 70   LegendMM LegendMM LegendMM 99.83     LegendNANA
20:00 3.0 -2.0 70   LegendMM LegendMM LegendMM 99.88     LegendNANA
21:00 2.6 -1.8 73   LegendMM LegendMM LegendMM 99.85     LegendNANA
22:00 2.1 -2.3 73   LegendMM LegendMM LegendMM 99.81     LegendNANA
23:00 1.6 -1.9 78   LegendMM LegendMM LegendMM 99.76     LegendNANA

Notes on Data Quality.

Legend

  • E = Estimated
  • M = Missing
  • NA = Not Available*
  • [empty] = Indicates an unobserved value
Date modified: